This is the latest recevied weather packets stored in our database for station/object W2TAO. If no packets are shown the sender has not sent any weather packets the latest 1 day(s).
| Time | Temp. | Humidity | Pressure | Rain* | Wind** | Luminosity | Snow |
|---|---|---|---|---|---|---|---|
| 1777980080 | 9.44° C | 96% | 1011.8 hPa | 0 mm | 0.89 m/s, 349° | 60 W/m² | - |
| 1777979779 | 8.89° C | 96% | 1011.9 hPa | 0 mm | 0 m/s | 52 W/m² | - |
| 1777979475 | 8.89° C | 96% | 1011.7 hPa | 0 mm | 0.45 m/s, 44° | 52 W/m² | - |
| 1777979172 | 8.89° C | 97% | 1011.7 hPa | 0 mm | 0.45 m/s, 257° | 54 W/m² | - |
| 1777978869 | 8.33° C | 96% | 1011.6 hPa | 0 mm | 0.45 m/s, 158° | 44 W/m² | - |
| 1777978566 | 8.33° C | 96% | 1011.6 hPa | 0 mm | 0.45 m/s, 304° | 39 W/m² | - |
| 1777978261 | 8.33° C | 96% | 1011.9 hPa | 0 mm | 0.45 m/s, 290° | 34 W/m² | - |
| 1777977958 | 8.33° C | 96% | 1011.8 hPa | 0 mm | 0 m/s | 26 W/m² | - |
| 1777977656 | 8.33° C | 96% | 1011.7 hPa | 0 mm | 0.89 m/s, 331° | 19 W/m² | - |
| 1777977352 | 8.33° C | 96% | 1011.6 hPa | 0 mm | 1.34 m/s, 276° | 17 W/m² | - |
| 1777977050 | 7.78° C | 95% | 1011.8 hPa | 0 mm | 0 m/s | 15 W/m² | - |
| 1777976747 | 7.78° C | 95% | 1011.4 hPa | 0 mm | 0 m/s | 14 W/m² | - |
| 1777976444 | 8.33° C | 95% | 1011.4 hPa | 0 mm | 0 m/s | 11 W/m² | - |
| 1777976143 | 8.89° C | 95% | 1011.6 hPa | 0 mm | 0.89 m/s, 318° | 9 W/m² | - |
| 1777975839 | 8.89° C | 95% | 1011.6 hPa | 0 mm | 0 m/s | 8 W/m² | - |
| 1777975536 | 8.33° C | 95% | 1011.5 hPa | 0 mm | 0 m/s | 7 W/m² | - |
| 1777975233 | 8.33° C | 94% | 1011.6 hPa | 0 mm | 0 m/s | 5 W/m² | - |
| 1777974929 | 8.33° C | 94% | 1011.6 hPa | 0 mm | 0 m/s | 1 W/m² | - |
| 1777974625 | 8.89° C | 93% | 1011.7 hPa | 0 mm | 0 m/s | 0 W/m² | - |
| 1777974322 | 8.89° C | 93% | 1011.7 hPa | 0 mm | 0 m/s | 1 W/m² | - |
| 1777974018 | 8.89° C | 92% | 1011.4 hPa | 0 mm | 0.89 m/s, 322° | 0 W/m² | - |
| 1777973715 | 8.89° C | 91% | 1011.4 hPa | 0 mm | 1.34 m/s, 141° | 0 W/m² | - |
| 1777973412 | 8.89° C | 89% | 1011.3 hPa | 0.51 mm | 0.89 m/s, 117° | 0 W/m² | - |
| 1777973110 | 8.89° C | 86% | 1011.4 hPa | 0.51 mm | 0 m/s | 0 W/m² | - |
| 1777972808 | 8.33° C | 85% | 1011.4 hPa | 0 mm | 0 m/s | 0 W/m² | - |
* Rain latest hour (hover to see other rain measurements)
** Current wind speed in m/s (hover to see current wind gust speed)